When you browse on this site, cookies collect data to enhance your experience and personalize the content and advertising you see.
Visit our Privacy Policy to learn more. By continuing to use the site, you agree to this use of cookies and data.
  • In Hungary
  • List of Countries
  • For 7 days
  • Water Temperature
  • Weather Map
  • News
  • Weather Widgets
  • user-avatar
    Login

    Hourly Weather Berkanowo

    Today, 9 December, Monday

    Time Temperature Precipitation Wind Pressure Humidity
    00:00 +5°C° 0 mm 6 mps 739 mmHg 85%
    01:00 +4°C° 0 mm 6 mps 739 mmHg 86%
    02:00 +4°C° 0 mm 6 mps 739 mmHg 86%
    03:00 +4°C° 0 mm 6 mps 739 mmHg 85%
    04:00 +4°C° 0 mm 6 mps 739 mmHg 84%
    05:00 +4°C° 0.6 mm 6 mps 739 mmHg 84%
    06:00 +4°C° 0.6 mm 6 mps 739 mmHg 84%
    07:00 +4°C° 0.6 mm 6 mps 740 mmHg 85%
    08:00 +4°C° 0 mm 6 mps 740 mmHg 83%
    09:00 +4°C° 0 mm 6 mps 740 mmHg 81%
    10:00 +4°C° 0 mm 6 mps 740 mmHg 79%
    11:00 +4°C° 0 mm 6 mps 740 mmHg 77%
    12:00 +5°C° 0 mm 6 mps 740 mmHg 75%
    13:00 +6°C° 0 mm 5 mps 741 mmHg 73%
    14:00 +6°C° 0 mm 5 mps 741 mmHg 75%
    15:00 +5°C° 0 mm 5 mps 741 mmHg 77%
    16:00 +5°C° 0 mm 5 mps 741 mmHg 79%
    17:00 +5°C° 0.1 mm 5 mps 741 mmHg 81%
    18:00 +5°C° 0.1 mm 5 mps 741 mmHg 84%
    19:00 +5°C° 0.1 mm 5 mps 742 mmHg 86%
    20:00 +5°C° 0.2 mm 5 mps 742 mmHg 86%
    21:00 +5°C° 0.2 mm 5 mps 742 mmHg 86%
    22:00 +3°C° 0.2 mm 5 mps 743 mmHg 86%
    23:00 +3°C° 0 mm 6 mps 743 mmHg 82%

    Tomorrow, 10 December, Tuesday

    Time Temperature Precipitation Wind Pressure Humidity
    00:00 +2°C° 0 mm 6 mps 744 mmHg 78%
    01:00 +2°C° 0 mm 7 mps 745 mmHg 74%
    02:00 0°C° 0 mm 7 mps 745 mmHg 76%
    03:00 0°C° 0 mm 8 mps 746 mmHg 79%
    04:00 -1°C° 0 mm 9 mps 747 mmHg 81%
    05:00 -1°C° 0.1 mm 8 mps 748 mmHg 80%
    06:00 -1°C° 0.1 mm 8 mps 750 mmHg 78%
    07:00 -1°C° 0.1 mm 8 mps 751 mmHg 77%
    08:00 -1°C° 0 mm 8 mps 752 mmHg 72%
    09:00 -1°C° 0 mm 8 mps 753 mmHg 67%
    10:00 -1°C° 0 mm 7 mps 755 mmHg 62%
    11:00 -1°C° 0 mm 7 mps 756 mmHg 59%
    12:00 -1°C° 0 mm 6 mps 756 mmHg 57%
    13:00 +1°C° 0 mm 6 mps 757 mmHg 54%
    14:00 0°C° 0 mm 5 mps 758 mmHg 57%
    15:00 0°C° 0 mm 3 mps 758 mmHg 59%
    16:00 -1°C° 0 mm 2 mps 758 mmHg 61%
    17:00 -1°C° 0 mm 2 mps 758 mmHg 63%
    18:00 -1°C° 0 mm 2 mps 759 mmHg 66%
    19:00 -1°C° 0 mm 2 mps 759 mmHg 69%
    20:00 -1°C° 0 mm 2 mps 759 mmHg 71%
    21:00 -1°C° 0 mm 3 mps 759 mmHg 72%
    22:00 -1°C° 0 mm 3 mps 758 mmHg 74%
    23:00 -2°C° 0 mm 4 mps 758 mmHg 72%

    Day after tomorrow, 11 December, Wednesday

    Time Temperature Precipitation Wind Pressure Humidity
    00:00 -2°C° 0 mm 4 mps 758 mmHg 71%
    01:00 -2°C° 0 mm 5 mps 757 mmHg 69%
    02:00 -2°C° 0 mm 5 mps 756 mmHg 72%
    03:00 -3°C° 0 mm 6 mps 756 mmHg 76%
    04:00 -3°C° 0 mm 6 mps 755 mmHg 79%
    05:00 -2°C° 0 mm 6 mps 754 mmHg 78%
    06:00 -2°C° 0 mm 7 mps 754 mmHg 77%
    07:00 -2°C° 0 mm 7 mps 754 mmHg 76%
    08:00 -2°C° 0 mm 7 mps 753 mmHg 73%
    09:00 -1°C° 0 mm 7 mps 753 mmHg 71%
    10:00 -1°C° 0 mm 8 mps 752 mmHg 69%
    11:00 -1°C° 0 mm 8 mps 752 mmHg 65%
    12:00 -1°C° 0 mm 7 mps 751 mmHg 60%
    13:00 0°C° 0 mm 7 mps 751 mmHg 56%
    14:00 -1°C° 0 mm 7 mps 750 mmHg 57%
    15:00 -1°C° 0 mm 7 mps 749 mmHg 57%
    16:00 -2°C° 0 mm 6 mps 749 mmHg 58%
    17:00 -2°C° 0 mm 6 mps 748 mmHg 59%
    18:00 -2°C° 0 mm 6 mps 748 mmHg 60%
    19:00 -2°C° 0 mm 6 mps 748 mmHg 61%
    20:00 -2°C° 0 mm 7 mps 747 mmHg 60%
    21:00 -2°C° 0 mm 7 mps 747 mmHg 59%
    22:00 -2°C° 0 mm 7 mps 747 mmHg 58%
    23:00 -2°C° 0 mm 7 mps 746 mmHg 60%

    12 December, Thursday

    Time Temperature Precipitation Wind Pressure Humidity
    00:00 -2°C° 0 mm 6 mps 746 mmHg 62%
    01:00 -2°C° 0 mm 6 mps 745 mmHg 64%
    02:00 -2°C° 0.1 mm 6 mps 745 mmHg 71%
    03:00 -1°C° 0.1 mm 5 mps 744 mmHg 79%
    04:00 -1°C° 0.1 mm 5 mps 743 mmHg 87%
    05:00 -1°C° 0.1 mm 5 mps 744 mmHg 89%
    06:00 0°C° 0.1 mm 5 mps 744 mmHg 92%
    07:00 0°C° 0.1 mm 5 mps 744 mmHg 94%
    08:00 0°C° 0.1 mm 4 mps 744 mmHg 95%
    09:00 +1°C° 0.1 mm 4 mps 744 mmHg 95%
    10:00 +1°C° 0.1 mm 4 mps 744 mmHg 95%
    11:00 +2°C° 0.1 mm 3 mps 744 mmHg 94%
    12:00 +2°C° 0.1 mm 3 mps 744 mmHg 93%
    13:00 +4°C° 0.1 mm 2 mps 744 mmHg 92%
    14:00 +3°C° 0 mm 2 mps 744 mmHg 93%
    15:00 +1°C° 0 mm 3 mps 744 mmHg 94%
    16:00 +1°C° 0 mm 3 mps 744 mmHg 95%
    17:00 +1°C° 0 mm 3 mps 743 mmHg 95%
    18:00 -1°C° 0 mm 4 mps 743 mmHg 94%
    19:00 -1°C° 0 mm 4 mps 743 mmHg 93%
    20:00 -1°C° 0 mm 4 mps 742 mmHg 93%
    21:00 0°C° 0 mm 4 mps 742 mmHg 92%
    22:00 0°C° 0 mm 5 mps 741 mmHg 92%
    23:00 0°C° 0 mm 5 mps 740 mmHg 90%

    13 December, Friday

    Time Temperature Precipitation Wind Pressure Humidity
    00:00 0°C° 0 mm 5 mps 739 mmHg 88%
    01:00 -1°C° 0 mm 6 mps 738 mmHg 86%
    02:00 -2°C° 0 mm 7 mps 736 mmHg 84%
    03:00 -2°C° 0 mm 7 mps 735 mmHg 81%
    04:00 -4°C° 0 mm 8 mps 734 mmHg 79%
    05:00 -4°C° 0 mm 9 mps 732 mmHg 77%
    06:00 -3°C° 0 mm 9 mps 731 mmHg 76%
    07:00 -3°C° 0 mm 10 mps 730 mmHg 74%
    08:00 -3°C° 0.6 mm 10 mps 729 mmHg 81%
    09:00 -4°C° 0.6 mm 10 mps 728 mmHg 87%
    10:00 -4°C° 0.6 mm 10 mps 727 mmHg 94%
    11:00 -3°C° 0.7 mm 9 mps 727 mmHg 94%
    12:00 -2°C° 0.7 mm 8 mps 726 mmHg 95%
    13:00 -2°C° 0.7 mm 8 mps 726 mmHg 96%
    14:00 -1°C° 0.6 mm 7 mps 726 mmHg 96%
    15:00 -1°C° 0.6 mm 6 mps 726 mmHg 96%
    16:00 0°C° 0.6 mm 5 mps 726 mmHg 96%
    17:00 0°C° 0.4 mm 5 mps 726 mmHg 95%
    18:00 0°C° 0.4 mm 5 mps 726 mmHg 94%
    19:00 0°C° 0.4 mm 5 mps 726 mmHg 92%
    20:00 -1°C° 0.1 mm 6 mps 726 mmHg 93%
    21:00 -1°C° 0.1 mm 8 mps 725 mmHg 94%
    22:00 -1°C° 0.1 mm 9 mps 725 mmHg 95%
    23:00 0°C° 0.5 mm 9 mps 725 mmHg 95%

    14 December, Saturday

    Time Temperature Precipitation Wind Pressure Humidity
    00:00 0°C° 0.5 mm 8 mps 725 mmHg 94%
    01:00 +1°C° 0.5 mm 8 mps 725 mmHg 94%
    02:00 +1°C° 0.3 mm 9 mps 725 mmHg 92%
    03:00 +1°C° 0.3 mm 9 mps 726 mmHg 89%
    04:00 +2°C° 0.3 mm 10 mps 727 mmHg 87%
    05:00 +1°C° 0.1 mm 9 mps 728 mmHg 88%
    06:00 +1°C° 0.1 mm 9 mps 728 mmHg 89%
    07:00 0°C° 0.1 mm 9 mps 729 mmHg 91%
    08:00 +1°C° 0 mm 9 mps 730 mmHg 87%
    09:00 +1°C° 0 mm 8 mps 731 mmHg 83%
    10:00 +1°C° 0 mm 8 mps 732 mmHg 79%
    11:00 +1°C° 0 mm 8 mps 732 mmHg 78%
    12:00 +2°C° 0 mm 7 mps 732 mmHg 78%
    13:00 +2°C° 0 mm 7 mps 733 mmHg 77%
    14:00 +2°C° 0 mm 7 mps 733 mmHg 78%
    15:00 +2°C° 0 mm 6 mps 734 mmHg 78%
    16:00 +2°C° 0 mm 6 mps 734 mmHg 79%
    17:00 +2°C° 0 mm 6 mps 735 mmHg 81%
    18:00 +2°C° 0 mm 6 mps 735 mmHg 83%
    19:00 +1°C° 0 mm 6 mps 735 mmHg 84%
    20:00 +1°C° 0 mm 6 mps 736 mmHg 84%
    21:00 +1°C° 0 mm 6 mps 737 mmHg 84%
    22:00 +1°C° 0 mm 6 mps 737 mmHg 84%
    23:00 +1°C° 0 mm 6 mps 738 mmHg 83%
    Show more